Wind_Speed
42 41 39 35 32 32 32 19 3 23 22 5 2 4 5 3 3 4 2 4 4 5 3 3 3 6 1 2 1 4 1 4 3 1 1 1 1 3 4 3 4 1 0 5
43 42 39 36 34 35 37 14 6 20 23 4 1 2 3 3 0 1 3 3 3 2 4 4 2 3 2 2 3 5 5 1 3 2 2 1 2 3 4 5 2 5 4 4
44 42 40 37 35 38 35 16 3 5 8 6 8 5 4 3 2 1 4 5 4 4 3 4 4 3 1 1 3 4 3 3 4 6 3 1 4 4 5 3 3 4 6 5
45 42 41 38 38 40 34 10 4 7 4 2 5 4 6 5 3 2 2 4 2 5 4 2 3 2 2 2 5 3 2 4 2 1 1 2 2 4 9 8 4 6 3 8
43 41 40 38 41 43 28 9 6 5 4 18 6 3 6 7 3 1 1 6 3 2 5 6 8 6 4 4 2 2 2 4 2 4 0 2 3 6 8 8 4 11 6 15
40 39 38 39 43 46 18 9 11 13 2 4 5 6 6 7 8 3 4 8 5 4 2 3 8 7 11 7 5 3 2 5 3 3 3 2 5 10 12 6 6 9 11 10
37 38 36 39 45 47 22 16 15 7 2 3 6 8 4 7 6 7 4 7 5 7 26 27 22 24 21 17 12 4 4 4 2 1 2 2 4 2 3 12 8 14 6 4
35 34 34 39 45 44 21 18 14 6 3 5 4 7 5 14 10 5 4 3 9 27 6 4 4 4 5 5 7 6 3 4 3 3 3 6 5 4 6 7 6 11 15 7
31 31 34 39 46 44 19 17 13 6 13 7 12 7 9 5 4 3 4 9 29 5 4 3 4 3 3 1 1 3 5 5 3 3 3 5 5 1 4 4 4 2 11 8
28 29 34 41 45 44 20 14 10 6 5 6 14 6 9 9 6 4 7 10 5 1 2 3 3 3 1 3 5 3 2 2 3 2 3 7 6 1 4 2 5 3 10 14
26 29 34 39 43 43 25 15 9 7 4 13 9 10 14 11 11 5 11 6 2 3 3 3 3 3 4 2 3 5 5 6 3 3 1 6 6 5 4 4 5 7 12 17
23 28 33 36 41 41 28 17 5 6 5 8 11 10 12 10 13 15 24 8 7 9 4 1 3 2 1 2 3 1 3 4 3 8 5 4 12 10 10 12 10 9 13 17
21 25 31 36 42 39 22 17 11 8 12 11 9 9 9 10 10 13 10 6 10 9 7 8 2 3 4 4 5 2 3 6 3 1 3 11 19 20 25 27 27 26 24 20
21 25 31 35 36 31 24 14 14 7 8 6 4 8 7 7 11 10 7 9 16 15 9 5 3 3 7 3 2 3 3 7 4 4 12 15 14 16 14 14 17 21 23 22
23 26 30 34 35 33 28 20 17 12 4 6 8 11 8 6 8 7 7 11 17 10 5 3 2 6 5 2 1 3 9 6 4 5 18 9 15 17 20 20 18 15 17 19
22 25 27 27 28 28 24 10 10 11 11 7 3 5 6 9 8 11 15 12 8 5 5 4 5 5 4 3 3 9 8 13 17 11 11 21 27 25 20 17 17 16 13 10
21 25 27 27 26 23 14 8 13 12 9 5 4 2 4 7 8 7 5 6 4 3 4 3 4 3 6 2 3 11 17 16 17 13 14 13 9 9 15 14 11 9 4 9
20 19 20 18 16 18 16 16 14 13 7 5 4 1 3 3 2 2 2 3 4 4 4 3 4 4 2 2 7 18 20 19 3 18 15 10 10 9 4 2 7 15 23 22
20 19 18 18 13 6 12 14 11 8 5 6 3 4 3 1 3 3 3 3 3 2 2 2 4 1 1 4 11 15 17 14 17 12 7 5 9 14 14 15 22 25 23 21
18 16 5 5 9 20 14 5 3 4 6 5 4 2 2 2 2 3 2 4 2 2 1 3 2 2 6 9 9 11 13 14 7 5 11 15 22 23 23 24 24 21 17 13
7 5 6 16 13 4 5 5 6 5 4 5 3 3 3 2 2 2 2 2 1 3 1 2 1 2 2 8 12 12 13 16 18 18 21 24 26 25 22 20 17 14 9 6
8 13 16 8 4 5 6 2 2 3 2 2 2 3 4 3 3 4 2 2 1 2 2 1 2 2 8 13 17 20 24 26 26 24 23 21 20 16 14 11 7 4 4 8
11 4 4 3 6 5 4 5 2 2 2 2 3 2 2 2 2 5 2 3 2 5 2 2 2 13 14 17 19 19 17 18 18 15 12 9 6 4 4 5 6 7 7 9
4 4 5 3 2 3 2 2 2 3 4 8 7 5 3 2 3 1 2 1 1 3 4 3 3 11 18 14 12 13 12 10 9 9 8 8 8 7 7 7 8 9 9 10
6 6 4 4 4 6 6 7 6 5 6 6 6 5 2 2 3 2 3 2 1 1 3 3 10 16 16 15 10 8 6 4 6 7 7 6 7 7 6 7 7 8 9 10
5 6 4 7 7 4 5 9 9 6 7 6 4 3 2 1 2 2 2 3 3 2 2 12 15 14 14 13 10 6 1 1 2 2 3 4 5 6 7 7 8 10 13 15
4 5 9 9 10 7 6 6 5 5 3 1 2 2 1 2 2 1 0 2 2 11 15 13 13 15 12 9 6 2 4 3 3 3 4 5 6 7 9 13 16 18 21 23
Wind_Direction
205 199 195 195 189 182 180 175 175 178 172 112 108 157 197 190 256 171 194 112 107 142 134 125 144 177 213 181 198 155 158 126 135 178 311 302 138 143 141 131 184 83 154 274
199 194 192 192 186 182 172 174 141 172 178 138 203 253 216 186 320 190 133 103 105 71 132 113 142 151 129 162 140 164 187 67 95 15 358 342 209 144 109 103 100 190 160 259
196 190 190 186 181 180 172 174 120 144 181 165 141 154 174 154 181 136 93 118 94 106 92 27 152 134 59 120 120 116 108 114 164 189 184 154 180 175 170 142 151 169 233 264
193 188 188 180 180 179 181 191 172 155 173 191 146 137 163 148 175 137 92 69 128 154 119 93 126 143 127 56 146 70 110 153 134 131 67 229 228 184 187 206 176 191 234 222
189 187 185 178 178 180 187 169 143 115 114 158 123 163 193 150 152 148 119 122 130 120 151 180 191 146 188 186 94 88 18 167 140 197 308 12 264 239 213 227 224 251 250 269
186 186 182 179 180 181 189 172 153 164 5 113 120 192 180 181 140 51 81 144 115 103 145 115 101 116 110 122 138 127 100 138 121 247 6 1 317 228 207 194 207 213 224 242
183 184 181 180 181 182 179 180 171 130 170 146 184 172 160 156 176 137 87 119 106 130 117 100 89 82 77 70 47 68 124 98 60 148 8 269 246 187 189 222 239 217 250 199
182 182 181 180 182 178 180 180 180 156 132 179 138 161 121 112 100 81 100 75 131 141 123 74 60 357 26 33 38 28 51 121 99 157 206 303 279 190 186 184 275 217 225 205
179 180 180 180 182 177 176 172 181 169 130 228 168 145 169 140 118 67 77 113 149 154 79 80 133 191 207 204 95 46 56 62 112 140 187 235 247 289 184 151 281 284 214 164
176 177 179 180 181 179 181 179 181 187 133 157 172 163 169 146 117 103 125 146 200 119 81 91 147 203 205 188 173 191 47 17 175 153 236 284 261 290 145 114 258 303 201 196
174 177 176 179 180 179 181 176 193 196 149 157 172 159 156 153 154 136 152 101 229 63 84 132 185 163 207 153 164 181 176 158 186 110 201 273 192 128 178 232 286 267 209 206
167 173 174 177 179 179 183 191 189 219 148 140 141 149 165 173 176 150 164 168 159 162 93 141 117 144 136 122 224 358 235 199 181 197 219 236 202 234 249 263 277 278 251 243
157 167 173 175 178 180 185 181 219 150 118 105 114 109 139 154 162 166 145 185 168 172 145 144 132 145 142 160 230 185 233 182 221 114 245 241 257 260 267 274 277 282 283 277
143 154 163 165 168 174 183 214 215 186 132 111 101 118 120 145 165 172 172 190 170 158 147 114 135 140 195 188 167 186 197 150 182 260 278 279 291 292 314 307 297 288 288 285
134 142 151 160 162 161 169 221 207 186 170 132 123 111 78 109 160 156 153 164 167 152 122 105 173 132 127 69 71 256 187 189 179 237 271 261 288 312 313 311 308 299 295 286
123 136 141 148 163 175 174 143 139 146 128 112 112 120 96 110 128 148 148 155 155 146 136 130 134 145 149 134 197 258 262 262 269 281 301 300 298 303 310 306 304 299 296 281
130 135 138 144 151 159 178 150 148 142 125 101 90 43 120 134 134 132 132 142 126 125 121 90 125 116 163 125 195 343 349 338 325 315 315 306 337 329 315 309 304 287 218 160
134 137 139 140 144 126 105 117 130 137 118 90 108 300 104 141 119 95 91 116 118 63 106 103 106 116 120 217 348 339 340 338 330 340 337 316 303 313 351 97 138 123 110 112
132 133 131 125 123 95 107 112 117 107 104 107 82 132 199 48 91 75 74 77 72 43 116 98 132 112 107 358 336 346 351 342 320 347 6 45 70 82 90 108 110 103 98 94
136 132 112 86 103 119 115 73 76 59 39 53 83 93 108 93 114 66 97 52 108 132 156 117 102 86 103 28 25 20 16 16 20 153 67 82 91 101 106 100 95 88 83 74
125 70 58 114 116 86 62 64 50 8 45 36 73 90 123 96 115 136 61 131 72 171 166 178 130 104 52 64 72 65 64 64 75 94 106 106 104 95 88 80 73 69 61 37
101 108 110 108 74 67 71 33 24 40 148 78 98 92 89 98 123 114 123 118 105 185 106 121 148 91 100 108 101 99 98 96 92 88 85 79 74 73 74 70 54 19 305 294
114 96 88 35 24 66 114 173 188 151 173 129 136 81 102 89 84 82 103 135 181 124 154 158 91 131 128 117 113 104 94 85 82 88 90 88 73 52 1 347 346 346 334 326
64 49 60 57 68 59 62 72 95 107 114 120 110 84 89 52 68 48 121 79 133 185 191 157 132 149 147 139 127 111 110 95 76 61 53 49 41 28 13 1 350 341 334 329
56 35 59 56 99 82 83 86 96 97 121 122 105 80 84 34 90 36 100 60 225 239 175 153 156 153 154 146 131 127 101 77 35 20 24 18 11 12 16 6 358 350 343 336
57 56 76 93 84 70 72 82 75 82 100 90 66 82 81 74 113 137 201 156 220 174 134 142 147 145 140 132 128 129 154 353 28 34 25 20 14 13 11 355 343 335 328 321
57 44 66 82 89 83 78 74 73 99 70 76 89 93 140 101 87 139 134 186 180 148 147 151 152 149 151 150 153 150 118 104 66 31 20 25 17 353 333 331 330 324 318 314
Height
1406 1415 1424 1434 1441 1447 1456 1463 1468 1467 1471 1477 1481 1486 1483 1480 1479 1480 1481 1482 1488 1494 1498 1503 1506 1507 1506 1507 1508 1510 1513 1520 1527 1523 1521 1521 1521 1525 1529 1537 1545 1556 1552 1528
1399 1410 1419 1428 1435 1442 1450 1458 1462 1465 1467 1479 1484 1481 1479 1478 1478 1479 1479 1483 1485 1491 1497 1504 1504 1506 1507 1507 1508 1510 1511 1522 1530 1526 1524 1521 1521 1525 1532 1538 1543 1544 1543 1523
1394 1404 1415 1422 1431 1440 1449 1454 1461 1463 1465 1468 1471 1477 1478 1478 1477 1478 1478 1483 1485 1492 1498 1500 1505 1506 1507 1507 1507 1508 1509 1520 1518 1522 1519 1521 1523 1524 1528 1527 1537 1537 1531 1519
1391 1400 1410 1418 1427 1437 1445 1447 1451 1452 1464 1467 1468 1471 1475 1477 1478 1477 1477 1482 1484 1489 1499 1502 1505 1506 1507 1508 1508 1509 1510 1516 1521 1525 1525 1523 1520 1521 1525 1524 1524 1524 1518 1521
1387 1397 1407 1412 1422 1433 1441 1443 1446 1451 1457 1460 1467 1471 1474 1475 1477 1477 1479 1482 1486 1487 1492 1492 1500 1500 1504 1504 1509 1510 1513 1520 1522 1525 1527 1527 1522 1520 1521 1522 1523 1520 1520 1513
1385 1395 1402 1409 1418 1429 1438 1439 1443 1446 1460 1463 1467 1470 1472 1472 1473 1479 1478 1479 1485 1488 1490 1490 1491 1496 1497 1500 1505 1512 1515 1521 1525 1526 1531 1528 1528 1511 1510 1512 1511 1507 1513 1497
1383 1392 1398 1406 1416 1426 1435 1439 1442 1445 1462 1462 1463 1465 1466 1469 1471 1476 1480 1481 1483 1491 1491 1493 1497 1499 1502 1505 1509 1510 1517 1523 1534 1530 1537 1528 1502 1503 1504 1504 1502 1501 1499 1498
1382 1389 1396 1404 1415 1426 1433 1437 1441 1443 1458 1457 1460 1463 1465 1468 1471 1476 1480 1483 1484 1488 1490 1499 1506 1512 1511 1515 1516 1514 1514 1521 1536 1528 1529 1516 1495 1500 1502 1502 1492 1490 1492 1495
1380 1387 1394 1403 1413 1425 1432 1436 1439 1441 1445 1454 1453 1460 1463 1468 1474 1479 1483 1485 1488 1489 1493 1502 1512 1513 1509 1512 1516 1518 1518 1519 1521 1540 1526 1521 1498 1496 1496 1497 1500 1486 1487 1491
1379 1385 1393 1401 1412 1423 1430 1434 1438 1441 1443 1445 1451 1454 1459 1462 1467 1477 1482 1487 1490 1489 1498 1509 1510 1508 1512 1510 1516 1525 1526 1530 1525 1543 1523 1514 1497 1498 1498 1504 1498 1486 1486 1488
1379 1386 1392 1401 1411 1422 1429 1434 1438 1441 1441 1446 1448 1451 1453 1457 1460 1470 1479 1486 1488 1491 1499 1504 1509 1511 1509 1510 1509 1513 1512 1521 1525 1539 1530 1513 1495 1498 1500 1491 1486 1485 1485 1485
1379 1385 1392 1401 1411 1421 1428 1433 1436 1438 1440 1445 1448 1450 1452 1455 1457 1459 1470 1471 1474 1478 1491 1502 1507 1510 1516 1513 1506 1510 1511 1505 1506 1509 1500 1492 1492 1489 1488 1487 1486 1485 1485 1484
1381 1386 1393 1401 1411 1421 1428 1434 1437 1437 1440 1447 1450 1451 1453 1455 1456 1459 1463 1470 1471 1473 1475 1485 1495 1500 1505 1508 1508 1505 1502 1502 1503 1503 1488 1487 1487 1487 1486 1485 1484 1483 1483 1483
1383 1389 1396 1404 1413 1422 1428 1432 1435 1436 1438 1443 1453 1453 1454 1455 1457 1458 1460 1462 1466 1471 1475 1479 1488 1494 1495 1502 1499 1500 1496 1499 1498 1497 1487 1484 1482 1482 1482 1481 1480 1478 1477 1476
1389 1394 1400 1407 1415 1422 1430 1431 1434 1435 1438 1443 1451 1454 1456 1456 1457 1459 1460 1462 1465 1469 1474 1479 1485 1486 1493 1500 1501 1498 1489 1487 1492 1487 1479 1481 1479 1479 1478 1476 1475 1474 1472 1471
1395 1398 1405 1411 1417 1423 1427 1432 1434 1434 1435 1439 1453 1457 1457 1458 1459 1459 1461 1464 1466 1468 1470 1476 1479 1481 1486 1495 1496 1481 1482 1482 1481 1480 1478 1477 1475 1475 1473 1471 1470 1468 1467 1467
1401 1405 1410 1414 1419 1423 1427 1427 1431 1433 1435 1438 1453 1456 1458 1459 1460 1461 1463 1464 1466 1469 1471 1475 1478 1481 1484 1490 1489 1485 1482 1480 1478 1477 1475 1473 1472 1472 1470 1469 1467 1466 1465 1466
1406 1409 1413 1417 1420 1423 1426 1428 1431 1433 1436 1439 1451 1459 1459 1460 1460 1462 1463 1465 1467 1470 1474 1477 1479 1483 1485 1486 1487 1485 1481 1478 1476 1475 1474 1473 1471 1470 1469 1468 1468 1469 1473 1475
1410 1413 1416 1418 1422 1424 1428 1431 1433 1435 1439 1441 1448 1456 1462 1460 1462 1463 1465 1466 1471 1474 1474 1477 1479 1484 1485 1491 1488 1485 1482 1479 1476 1475 1473 1471 1471 1472 1474 1474 1476 1475 1478 1480
1411 1415 1416 1420 1424 1427 1431 1434 1436 1438 1441 1444 1452 1457 1460 1462 1463 1466 1468 1469 1474 1475 1477 1477 1478 1483 1490 1489 1487 1485 1482 1478 1475 1474 1475 1475 1475 1476 1478 1479 1480 1483 1483 1485
1412 1414 1419 1425 1427 1430 1432 1437 1442 1447 1451 1453 1456 1457 1459 1462 1464 1466 1469 1471 1474 1472 1476 1477 1478 1484 1490 1489 1488 1486 1484 1482 1479 1478 1479 1480 1481 1482 1483 1484 1484 1484 1485 1485
1417 1418 1424 1428 1430 1434 1440 1451 1452 1452 1455 1456 1457 1458 1460 1462 1463 1465 1470 1471 1474 1471 1477 1477 1479 1490 1489 1489 1488 1488 1487 1486 1485 1486 1486 1487 1487 1487 1487 1486 1486 1485 1484 1483
1420 1423 1427 1431 1438 1444 1450 1450 1453 1455 1455 1456 1457 1460 1461 1462 1463 1466 1468 1469 1473 1476 1476 1475 1483 1487 1489 1490 1490 1491 1490 1490 1489 1489 1489 1488 1488 1488 1487 1487 1486 1485 1485 1483
1423 1427 1436 1440 1443 1448 1449 1451 1452 1455 1456 1457 1458 1460 1461 1464 1465 1468 1467 1473 1473 1471 1472 1476 1483 1485 1488 1490 1490 1490 1492 1492 1492 1492 1491 1490 1489 1489 1488 1487 1487 1485 1484 1483
1429 1433 1444 1448 1451 1452 1452 1453 1454 1456 1458 1458 1460 1462 1464 1466 1467 1470 1472 1476 1474 1475 1476 1479 1481 1484 1487 1489 1491 1492 1493 1493 1493 1493 1492 1491 1490 1490 1489 1487 1486 1485 1483 1481
1438 1444 1448 1451 1452 1455 1455 1456 1456 1457 1458 1459 1461 1464 1466 1468 1469 1470 1470 1473 1474 1477 1478 1480 1483 1485 1488 1490 1491 1492 1492 1491 1491 1491 1491 1490 1489 1489 1488 1487 1485 1484 1481 1479
1447 1452 1452 1453 1454 1456 1457 1458 1460 1460 1462 1463 1465 1466 1468 1471 1471 1472 1472 1473 1474 1476 1478 1481 1483 1485 1486 1488 1490 1490 1490 1491 1491 1490 1490 1490 1489 1489 1487 1485 1483 1481 1478 1475